This is the latest recevied weather packets stored in our database for station/object SP2WPY-13. If no packets are shown the sender has not sent any weather packets the latest 1 day(s).
| Time | Temp. | Humidity | Pressure | Rain* | Wind** | Luminosity | Snow |
|---|---|---|---|---|---|---|---|
| 1777986670 | 11.67° C | 82% | 1013.8 hPa | - | 1.79 m/s, 61° | - | - |
| 1777986396 | 11.67° C | 80% | 1013.8 hPa | - | 1.34 m/s, 61° | - | - |
| 1777986077 | 11.67° C | 79% | 1013.9 hPa | - | 1.34 m/s, 58° | - | - |
| 1777985803 | 11.67° C | 79% | 1013.9 hPa | - | 0.45 m/s, 37° | - | - |
| 1777985483 | 12.22° C | 81% | 1013.9 hPa | - | 2.24 m/s, 117° | - | - |
| 1777985163 | 12.22° C | 85% | 1014 hPa | - | 1.79 m/s, 41° | - | - |
| 1777984889 | 12.22° C | 86% | 1014 hPa | - | 0.45 m/s, 90° | - | - |
| 1777984570 | 11.67° C | 84% | 1014 hPa | - | 0.89 m/s, 32° | - | - |
| 1777984296 | 11.67° C | 82% | 1014 hPa | - | 1.34 m/s, 35° | - | - |
| 1777983976 | 11.67° C | 85% | 1014 hPa | - | 1.34 m/s, 108° | - | - |
| 1777983701 | 11.67° C | 88% | 1013.9 hPa | - | 0.89 m/s, 74° | - | - |
| 1777983382 | 11.11° C | 84% | 1013.9 hPa | - | 1.34 m/s, 28° | - | - |
| 1777983062 | 11.11° C | 87% | 1013.8 hPa | - | 0.45 m/s, 147° | - | - |
| 1777982789 | 11.11° C | 85% | 1013.8 hPa | - | 0.45 m/s, 47° | - | - |
| 1777982468 | 11.11° C | 84% | 1013.7 hPa | - | 2.68 m/s, 10° | - | - |
| 1777982194 | 11.11° C | 80% | 1013.6 hPa | - | 2.68 m/s, 15° | - | - |
| 1777981875 | 11.67° C | 82% | 1013.6 hPa | - | 2.24 m/s, 4° | - | - |
| 1777981601 | 12.22° C | 80% | 1013.6 hPa | - | 1.34 m/s, 345° | - | - |
| 1777981281 | 12.22° C | 78% | 1013.6 hPa | - | 1.79 m/s, 41° | - | - |
| 1777980963 | 12.78° C | 79% | 1013.6 hPa | - | 0.89 m/s, 19° | - | - |
| 1777980688 | 12.78° C | 73% | 1013.5 hPa | - | 1.34 m/s, 55° | - | - |
| 1777980368 | 13.33° C | 70% | 1013.5 hPa | - | 0.89 m/s, 69° | - | - |
| 1777980094 | 13.89° C | 65% | 1013.4 hPa | - | 1.79 m/s, 50° | - | - |
| 1777979774 | 13.89° C | 62% | 1013.4 hPa | - | 1.79 m/s, 40° | - | - |
| 1777979500 | 13.89° C | 61% | 1013.3 hPa | - | 0.89 m/s, 183° | - | - |
* Rain since midnight (hover to see other rain measurements)
** Current wind speed in m/s (hover to see current wind gust speed)